Location: McKinney
(33.1972°N, 96.6398°W)
Time: 09:25:38
(UTC-05:00)

ISS - Pass Details

Date: 04 May 2019
Orbit: 408 x 410 km, 51.6° (Epoch: 19 May)

Event Time Altitude Azimuth Distance (km) Brightness Sun altitude
Exits shadow 04:19:52 18° 355° (N) 1,101 -1.3 -25.3°
Drops below altitude 10° 04:21:16 10° 17° (NNE) 1,473 -0.2 -25.1°
Sets 04:23:43 0° 34° (NE) 2,338 1.3 -24.7°
